Location: Dompnac
(44.5644°N, 4.1026°E)
Time: 19:00:02
(UTC+00:00)

Cosmos 1634 Rocket - Pass Details

Date: 26 January 2021
Orbit: 961 x 991 km, 82.9° (Epoch: 05 March)

Event Time Altitude Azimuth Distance (km) Brightness Sun altitude
Rises 04:32:58 0° 159° (SSE) 3,630 7.2 -27.7°
Reaches altitude 10° 04:35:39 10° 151° (SSE) 2,688 6.6 -27.2°
Maximum altitude 04:41:08 35° 87° (E) 1,502 5.5 -26.2°
Drops below altitude 10° 04:46:39 10° 24° (NNE) 2,713 6.6 -25.2°
Sets 04:49:21 0° 16° (NNE) 3,668 7.2 -24.7°
